SALSAT

Last updated on Tue Jan 14 2025 00:03:00 GMT+0000 (Coordinated Universal Time)

1 46495U 20068K 25013.38792165 .00010609 00000+0 50908-3 0 9996 2 46495 97.8436 345.1720 0011109 319.6447 40.3961 15.19020882236151
UTC large
Height (km)
Speed (km/s)
/
Latitude / Longitude
Inclination (degrees)
Orbital Period (minutes)
Azimuth
Elevation
Range (km)
Doppler Factor

Next 0 passes for location: London (51.5072 / 0.1276)

Sorry there are no passes over London.